CZ-6A DEB, 55214

Orbit data source: Space-Track

CZ-6A DEB, 55214 is space debris in SSO originally from a launch on Fri, 11 Nov 2022 UTC launched from the Taiyaun Space Center, China (TSC). Debris objects in space refer to the collection of defunct objects orbiting the Earth. Examples of debris include non-operational satellites, rocket bodies, and fragments generated from explosions, collisions, or faulty payload assembly.

Loading next visibility...
Identifier
55214, 2022-151WF
Orbit
SSO
Country
Flag of CNCN / PRC
Related business
Manufacturer
SAST
Mission
Spacecraft
Bus & Motor
Unknown
Mass
Unknown
Launch date (UTC)
2022-11-11 (4 years ago)
Launch vehicle
Unknown
Launch site
Taiyaun Space Center, China (TSC)
Object type
Payload
Rocket body
Debris
Shape & HBR
Unknown shape, 0.1 m
Radar Cross Section
Small (<0.1 m²)

Expand to show TLE details & history
Last TLE update: 17 hours ago

TLE from 17 hours ago
0 CZ-6A DEB
1 55214U 22151WF  26236.11456249  .00005742  00000-0  83385-3 0  9997
2 55214  98.4295 287.2965 0098140   4.0652 356.1330 14.73130076195541
Epoch: 2026-08-24T02:44Z
TLE epoch observation values (Epoch: 2026-08-24T02:44:58.199Z)
Latitude
0.00005°
Longitude
-86.34691°
Altitude
585.25 km
Speed
7.605 km/s
True Right ascension
19h 09m 11s
True Declination
0° 00' 00"
Sunlit
Object was in full shadow at epoch
Visualization orbit readout
Latitude
Unknown
Longitude
Unknown
Altitude
Unknown
Speed
Unknown
Apparent Right ascension
Unknown
Apparent Declination
Unknown
Sunlit
N/A
Visualization observer readout
Local Sidereal Time
10:52:32
Azimuth
Unknown
Elevation
Unknown
Doppler factor
Unknown
Orbital elements
Apogee altitude
717.124 km
Perigee altitude
579.211 km
Semi-major axis
7,026.304 km
Eccentricity
0.00981
Inclination
98.4295°
RAAN
287.2965°
Arg. of periapsis
4.0652°
True anomaly
356.05622°
Mean anomaly
356.133°
Eccentric anomaly
356.0947°
Mean motion
3.68513 °/min
Orbital period
97.69 mins
BSTAR
0.00083385
Loading maneuver chart data...
Computing Atmospheric mass density...
Loading historical data...
Loading historical data...
Loading historical data...
Loading historical data...
Loading historical data...
Loading historical data...
Loading historical data...

Documentation

Showing up to 5 results
|